CAPE
0 0 0 0 0 0 0 0 0 0 0 0 0 0 0 0 0 0 0 0 1 8 0 1 108 229 319 404 442 515 1175 1489 1617 1957 2578 2886 2994 3301 3503 3571 3632 3744 3389 2790
0 0 0 0 0 0 0 0 0 0 0 0 0 0 0 0 0 0 0 0 0 4 14 29 37 69 262 532 639 635 1030 1379 1974 2518 2865 3130 3484 3661 3836 3990 4027 3787 3165 2753
0 0 0 0 0 0 0 0 0 0 0 0 0 0 0 0 0 0 0 2 15 27 70 233 280 98 37 131 565 856 981 1389 2171 2801 3085 3323 3718 3955 4098 4086 3602 3140 3095 3330
0 0 0 0 0 0 0 0 0 0 0 0 0 0 0 0 0 0 0 0 1 19 197 628 1242 765 567 412 523 776 1169 1538 2255 2903 3288 3596 3793 4031 4098 3869 3564 3330 3332 3031
0 0 0 0 0 0 0 0 0 0 0 0 0 0 0 0 0 0 0 0 1 39 12 622 1157 1814 1809 1507 1176 1085 1290 1852 2467 3098 3452 3642 3805 3924 3477 3708 3427 3097 2966 2367
0 0 0 0 0 0 0 0 60 0 0 0 0 0 0 0 0 0 0 0 0 30 426 1108 1614 2026 1945 2216 2269 2122 2274 2620 3145 3403 3564 3813 3924 3377 3100 3070 2711 2548 2174 1629
0 0 0 0 0 0 0 0 50 186 23 0 0 0 0 0 0 0 0 0 82 533 601 1233 1823 2060 2050 2438 2551 3156 3483 3585 3727 3802 3762 3557 3221 2763 2755 2767 2587 2197 1767 877
0 0 0 0 0 0 0 0 0 0 35 275 31 0 0 0 0 3 13 40 420 700 1228 2090 2364 2345 2587 2941 3413 3507 3545 3466 3356 3241 3211 3030 2916 2634 2423 2258 2039 1735 1146 256
0 0 0 0 0 0 0 0 0 0 0 103 624 109 284 433 745 906 826 1110 1809 1679 2395 2793 2802 2845 3014 3350 3382 3285 3266 3207 3197 3027 2880 2599 2471 2280 1947 1761 1609 1200 802 356
0 0 0 0 0 0 0 0 0 0 0 0 1113 1248 1435 1734 2010 2221 2528 2400 2759 2711 2982 3132 3193 3173 3165 3235 3237 3166 3079 2832 2464 2324 1964 1816 1678 1656 1493 1260 1081 881 538 145
0 0 0 0 0 0 0 0 0 0 0 0 1497 1755 1801 1950 2109 2327 2618 2879 3003 3097 3185 3282 3297 3239 3226 3168 3126 2999 2653 2168 1665 1121 767 444 71 369 690 302 528 664 394 28
0 0 0 0 0 0 0 0 0 0 0 0 1798 2034 2151 2234 2412 2430 2602 2785 2839 2873 2964 2985 3068 3042 2877 2523 2207 2000 1669 1466 1021 623 394 154 102 1 0 0 0 45 299 193
0 0 0 0 0 0 0 0 0 0 0 0 2250 2346 2320 2241 2478 2494 2517 2585 2668 2693 2696 2718 2712 2553 2243 2022 1714 1628 1581 1460 1091 648 446 195 14 63 34 0 0 0 0 0
0 0 0 0 0 0 0 0 0 0 693 210 2368 2080 2060 2035 1992 2096 2127 1941 1885 1942 1989 2049 2004 1927 1830 1835 1734 1594 1448 1364 1064 576 214 63 14 0 0 7 0 0 0 0
0 0 0 0 0 0 0 0 0 0 132 1137 1469 1700 1839 1753 1655 1553 1275 1285 1320 1251 1092 1210 1149 846 813 921 901 935 953 1052 849 442 194 94 0 0 0 0 0 0 0 0
0 0 0 0 0 0 0 0 0 0 0 152 487 1080 1274 1107 898 707 675 723 971 823 538 437 256 59 62 324 581 593 598 817 714 347 50 0 0 0 0 0 0 0 0 0
0 0 0 0 0 0 0 0 0 0 0 73 86 591 604 434 253 171 102 68 126 85 5 1 0 0 0 0 0 0 0 0 0 0 0 0 0 0 0 0 0 0 0 0
0 0 0 0 0 0 0 0 0 0 12 81 103 82 162 165 122 63 9 0 0 0 0 0 0 0 0 0 0 0 0 0 0 0 0 0 7 0 0 0 0 0 0 0
0 0 0 0 0 0 0 0 0 0 43 49 54 54 44 49 86 41 1 0 0 0 0 0 0 0 0 0 0 0 0 0 0 0 7 20 29 3 1 0 0 0 0 0
0 0 0 0 0 0 0 0 0 36 52 0 20 57 36 47 52 17 0 1 3 2 1 0 0 0 0 0 0 0 0 0 0 0 4 31 27 12 8 0 0 0 0 0
0 0 0 0 4 24 26 100 82 81 48 1 0 0 6 16 15 12 4 37 80 14 0 0 0 0 0 0 0 0 0 0 0 0 6 21 27 33 17 3 0 0 0 0
0 0 0 15 89 119 160 85 72 72 54 39 19 8 35 32 0 26 78 141 80 13 0 0 0 0 0 0 0 0 0 0 0 4 27 34 45 48 15 0 0 0 0 0
337 240 256 318 211 133 44 48 30 29 26 9 11 2 2 26 17 25 95 76 44 10 0 12 0 0 0 0 0 0 0 0 5 18 22 27 44 41 8 0 0 0 0 0
296 311 237 77 6 0 0 0 0 0 0 0 0 0 3 13 34 66 41 15 4 0 0 0 0 0 0 0 0 0 0 0 6 15 18 25 15 8 0 0 0 0 0 0
19 6 29 4 0 19 1 0 0 0 0 0 0 0 0 0 30 17 45 0 0 0 0 0 0 0 0 0 0 0 0 0 0 0 0 0 0 0 0 0 0 0 0 0
0 0 0 0 0 2 14 0 0 0 0 0 2 2 3 7 3 14 13 6 0 1 0 0 0 0 0 0 0 0 0 0 0 0 0 2 2 0 0 0 0 0 0 0
27 23 9 0 0 0 4 1 0 0 0 7 10 0 0 14 22 39 51 22 19 20 13 0 0 0 0 0 0 2 1 0 0 0 12 23 25 18 7 1 1 0 0 0
CIN
0 0 0 0 0 0 0 0 0 0 0 0 0 0 0 0 0 0 0 0 -43 -134 -4 -56 -290 -302 -334 -439 -518 -584 -551 -514 -479 -476 -402 -312 -260 -218 -154 -102 -62 -33 -42 -116
0 0 0 0 0 0 0 0 0 0 0 0 0 0 0 0 0 0 0 -2 0 -109 -133 -168 -217 -236 -273 -327 -438 -526 -510 -441 -452 -419 -353 -296 -221 -149 -94 -52 -28 -27 -53 -74
0 0 0 0 0 0 0 0 0 0 0 0 0 0 0 0 0 0 0 -74 -133 -126 -121 -128 -155 -209 -230 -271 -424 -413 -456 -507 -423 -390 -325 -269 -168 -97 -57 -30 -30 -41 -90 -80
0 0 0 0 0 0 0 0 0 0 0 0 0 0 0 0 0 0 0 0 -49 -141 -170 -197 -204 -224 -253 -362 -349 -383 -419 -447 -426 -373 -286 -195 -113 -67 -31 -30 -38 -72 -79 -107
0 0 0 0 0 0 0 0 0 0 0 0 0 0 0 0 0 0 0 0 -44 -119 -160 -176 -158 -207 -196 -275 -327 -331 -352 -381 -376 -314 -226 -138 -90 -50 -61 -46 -76 -134 -161 -195
0 0 0 0 0 0 0 0 -113 0 0 0 0 0 0 0 0 0 0 0 0 -102 -132 -159 -193 -198 -164 -208 -265 -267 -312 -339 -315 -242 -158 -92 -70 -81 -109 -100 -138 -131 -122 -184
0 0 0 0 0 0 0 0 -142 -203 -67 0 0 0 0 0 0 0 0 0 -163 -157 -125 -141 -229 -220 -187 -216 -222 -280 -268 -243 -184 -115 -72 -77 -107 -145 -116 -84 -86 -89 -116 -274
0 0 0 0 0 0 0 0 0 0 -239 -159 -76 0 0 0 0 -107 -111 -208 -185 -152 -154 -225 -261 -214 -224 -252 -290 -267 -198 -152 -131 -118 -92 -79 -67 -70 -83 -88 -109 -144 -183 -415
0 0 0 0 0 0 0 0 0 0 0 -259 -149 -203 -187 -177 -183 -168 -164 -171 -207 -169 -206 -272 -260 -242 -266 -259 -256 -233 -167 -129 -95 -77 -65 -83 -69 -80 -142 -154 -144 -191 -218 -276
0 0 0 0 0 0 0 0 0 0 0 0 -121 -153 -202 -219 -230 -244 -263 -250 -280 -230 -239 -250 -252 -238 -229 -257 -227 -184 -137 -137 -140 -126 -164 -161 -170 -164 -173 -187 -188 -193 -201 -255
0 0 0 0 0 0 0 0 0 0 0 0 -121 -146 -155 -197 -237 -286 -296 -308 -282 -240 -227 -201 -187 -181 -181 -187 -173 -138 -127 -149 -211 -325 -398 -496 -453 -200 -298 -385 -244 -147 -155 -235
0 0 0 0 0 0 0 0 0 0 0 0 -118 -107 -173 -215 -278 -284 -279 -287 -257 -247 -222 -203 -169 -145 -149 -192 -207 -201 -219 -227 -313 -399 -435 -495 -499 -27 0 0 0 -230 -96 -82
0 0 0 0 0 0 0 0 0 0 0 0 -96 -112 -197 -256 -282 -285 -277 -249 -223 -224 -210 -186 -148 -136 -170 -193 -218 -216 -203 -199 -246 -317 -334 -385 -466 -372 -246 0 0 0 0 -3
0 0 0 0 0 0 0 0 0 0 -230 -215 -89 -165 -219 -270 -299 -279 -265 -280 -268 -243 -225 -204 -188 -175 -166 -147 -145 -156 -170 -157 -190 -271 -343 -384 -379 0 0 -52 0 0 0 0
0 0 0 0 0 0 0 0 0 0 -327 -215 -188 -134 -232 -259 -283 -322 -374 -369 -334 -313 -319 -283 -270 -318 -315 -273 -259 -237 -215 -176 -186 -239 -297 -300 0 0 0 0 0 0 0 0
0 0 0 0 0 0 0 0 0 0 0 -311 -297 -245 -317 -348 -397 -440 -454 -415 -330 -341 -403 -406 -444 -579 -544 -357 -268 -235 -209 -151 -146 -208 -314 0 0 0 0 0 0 0 0 0
0 0 0 0 0 0 0 0 0 0 0 -334 -367 -297 -339 -435 -511 -541 -564 -543 -486 -484 -502 -94 0 0 0 0 0 0 0 0 0 0 0 0 0 0 0 0 0 0 0 0
0 0 0 0 0 0 0 0 0 0 -241 -275 -334 -381 -381 -454 -514 -555 -581 0 0 0 0 0 0 0 0 0 0 0 0 0 0 0 0 0 -39 0 0 0 0 0 0 0
0 0 0 0 0 0 0 0 0 0 -207 -254 -303 -326 -407 -437 -459 -498 -71 0 0 0 0 0 0 0 0 0 0 0 0 0 0 0 -34 -51 -79 -109 -73 0 0 0 0 0
0 0 0 0 0 0 0 0 0 -108 -137 0 -241 -253 -299 -336 -370 -413 -10 -389 -389 -332 -91 0 0 0 0 0 0 0 0 0 0 0 -48 -48 -70 -88 -133 0 0 0 0 0
0 0 0 0 -19 -101 -117 -96 -107 -101 -159 -21 0 0 -228 -293 -270 -292 -298 -316 -273 -343 0 0 0 0 0 0 0 0 0 0 0 0 -62 -68 -77 -77 -92 -144 0 0 0 0
0 0 0 -23 -27 -50 -73 -70 -103 -128 -154 -171 -178 -188 -155 -167 -34 -141 -155 -182 -144 -235 0 0 0 0 0 0 0 0 0 0 0 -50 -47 -63 -63 -69 -94 0 0 0 0 0
-29 -7 -9 -15 -34 -60 -53 -82 -127 -108 -114 -169 -189 -175 -167 -180 -36 -32 -78 -157 -127 -199 0 -230 0 0 0 0 0 0 0 0 -30 -44 -52 -65 -65 -81 -105 0 0 0 0 0
-5 -22 -56 -73 -123 -11 0 0 -14 0 0 0 0 -15 -84 -71 -59 -74 -71 -149 -118 0 0 0 0 0 0 0 0 0 0 0 -58 -52 -42 -52 -75 -89 0 0 0 0 0 0
-50 -50 -52 -105 0 0 -1 0 0 0 0 0 0 0 0 0 -38 -126 -119 0 0 0 0 0 0 0 0 0 0 0 0 0 0 0 0 0 0 0 0 0 0 0 0 0
0 0 0 0 -1 -9 -4 0 0 0 0 0 -7 -11 -18 -19 -31 -78 -66 -65 0 -34 0 0 0 0 0 0 0 0 0 0 0 0 0 -20 -23 0 0 0 0 0 0 0
-7 -19 -21 -3 0 0 -6 -5 0 0 0 -7 -16 0 -13 -12 -21 -38 -38 -53 -58 -59 -68 0 0 0 0 0 0 -25 -32 0 0 0 -47 -49 -59 -52 -65 -30 -34 0 0 0
Wind_Speed
46 41 34 30 34 33 33 37 34 40 51 34 33 28 26 33 16 9 14 13 17 22 19 17 18 19 20 20 17 16 16 16 17 12 9 8 8 8 7 7 8 8 9 8
37 44 37 38 34 35 37 30 33 38 48 34 32 30 26 16 5 12 7 10 14 15 14 13 13 13 13 13 14 14 15 19 13 11 9 8 7 6 6 7 8 8 6 7
36 34 34 42 41 34 34 35 29 30 43 42 30 26 21 18 15 15 11 13 10 9 10 9 9 9 5 6 6 10 12 11 12 11 11 9 8 7 7 8 9 7 5 6
33 24 37 37 31 28 29 30 31 36 37 43 47 36 25 21 20 16 19 17 11 9 6 5 3 3 7 6 2 4 8 10 12 12 11 10 8 7 7 7 5 3 5 8
30 32 28 22 14 18 21 23 24 29 31 33 38 36 35 26 21 17 13 16 15 11 10 8 6 7 8 9 8 6 6 8 9 9 9 7 6 6 6 4 1 2 5 10
28 31 35 29 22 12 14 19 26 29 28 24 22 30 31 24 19 16 12 9 8 9 8 6 5 4 6 9 10 10 7 7 5 5 5 5 5 6 7 3 5 9 11 11
31 30 23 22 19 21 21 22 23 18 22 26 23 25 23 15 16 14 13 11 10 9 8 7 6 8 9 9 11 12 8 6 4 2 2 4 7 8 4 4 6 9 10 10
29 31 30 23 14 19 20 20 18 18 18 20 24 13 8 10 11 13 13 13 12 11 12 10 9 9 10 11 11 10 8 6 6 5 5 5 4 3 3 4 5 8 9 12
25 23 15 11 7 13 16 17 20 21 21 20 18 12 7 7 8 10 11 13 13 11 11 11 9 8 7 7 8 8 7 5 4 5 4 4 3 2 3 4 5 7 9 11
28 23 21 14 14 16 18 19 21 20 20 20 10 5 3 4 6 8 10 11 11 10 10 10 9 8 6 5 5 6 5 5 5 5 6 6 6 5 5 5 6 8 8 11
33 27 24 23 21 23 24 23 23 24 22 21 10 8 4 3 4 5 6 7 6 5 5 5 4 4 4 3 4 5 6 6 6 6 7 7 8 8 7 9 9 7 8 8
36 29 28 31 29 29 27 28 27 27 28 26 15 8 5 5 4 4 5 5 5 6 5 5 5 4 4 3 5 5 6 6 8 8 7 7 8 11 16 13 13 11 6 7
37 36 35 33 33 29 30 30 29 31 31 27 16 10 8 6 8 6 7 6 5 4 4 3 4 4 3 4 5 7 9 9 7 7 6 7 8 9 11 15 16 14 11 9
38 39 41 36 38 36 32 30 31 30 30 23 13 11 8 6 7 8 7 6 4 3 3 4 5 4 4 5 6 7 7 7 6 6 6 7 8 10 10 10 11 14 16 12
46 42 43 39 39 36 34 31 32 29 27 23 18 12 9 7 7 5 2 2 3 4 4 5 6 5 6 7 7 7 7 6 6 7 7 8 8 9 10 10 12 11 11 12
44 44 45 45 42 39 34 32 33 32 30 26 22 15 11 7 5 2 1 1 2 2 5 6 7 6 7 7 6 6 6 6 6 7 7 8 8 9 9 10 10 10 9 10
56 54 47 46 45 41 38 35 34 36 36 29 24 15 11 8 7 6 4 3 2 3 2 3 4 4 4 5 5 5 6 6 6 6 7 7 8 8 9 9 9 8 8 8
51 50 48 45 45 43 42 39 40 41 39 27 22 18 14 10 10 9 7 6 4 2 2 1 3 4 4 6 8 8 6 6 4 5 6 6 7 7 7 8 8 8 7 8
53 54 49 49 45 43 42 41 40 38 31 22 19 17 15 13 11 11 9 8 7 6 6 4 4 6 7 8 9 8 5 5 4 4 3 4 5 5 6 6 7 8 9 9
49 47 43 43 40 41 42 42 41 35 25 23 18 15 14 13 13 13 12 11 9 8 6 6 7 8 9 10 9 9 9 5 3 4 5 3 3 4 5 6 6 7 8 9
39 43 44 39 37 34 34 31 29 23 21 21 18 16 15 13 13 15 14 14 12 8 7 7 9 12 12 11 11 13 11 5 4 5 3 2 3 3 4 4 5 6 8 10
35 39 39 36 28 24 23 23 21 19 17 16 14 13 12 15 13 17 18 15 15 12 9 8 11 11 11 11 12 10 9 6 4 2 2 2 2 3 3 3 3 4 7 8
17 23 23 21 21 15 14 14 13 13 14 14 14 15 15 11 14 13 19 16 16 14 10 10 11 9 10 10 5 6 7 7 6 4 3 2 1 1 2 3 3 5 7 8
4 8 11 14 12 13 7 7 7 8 9 8 9 11 12 13 12 12 15 15 14 12 10 10 9 8 8 7 5 6 6 7 7 6 5 3 2 1 0 1 3 5 8 9
10 2 6 9 9 11 7 10 6 4 6 8 9 9 10 13 10 11 12 14 14 13 12 11 10 12 11 9 8 6 6 7 8 7 7 5 3 3 2 1 4 7 7 6
15 10 2 2 6 5 10 7 9 9 11 12 13 14 14 15 7 9 12 14 15 10 12 13 14 16 13 10 6 6 6 6 5 5 4 3 1 1 3 5 5 5 5 6
11 16 10 8 8 7 7 8 7 10 14 16 18 17 16 18 12 12 16 15 16 14 15 18 17 11 12 14 13 8 5 5 4 4 4 4 4 4 4 5 5 6 7 8
Wind_Direction
237 238 242 249 251 241 243 249 251 253 238 256 261 268 272 262 270 181 169 189 195 192 191 196 203 205 209 215 220 224 230 230 216 223 236 241 241 249 258 268 277 286 300 312
239 236 240 245 251 251 245 252 254 252 243 251 258 266 277 299 258 219 229 179 166 170 178 182 191 203 221 228 223 222 226 217 242 248 252 246 254 263 266 287 308 314 324 332
237 237 239 246 246 251 252 251 254 258 251 246 259 264 272 278 282 256 200 188 204 197 191 201 195 193 260 231 244 223 230 247 248 252 249 252 266 273 282 307 324 326 329 341
236 234 237 249 250 254 255 258 260 263 261 244 246 254 264 272 280 283 256 259 242 231 229 230 268 307 330 335 315 269 260 257 259 256 259 261 266 274 300 319 316 340 353 348
236 228 243 247 251 251 252 261 275 267 266 260 251 252 260 264 268 273 265 261 261 250 270 285 297 317 331 334 334 320 288 274 261 259 263 256 259 267 303 322 345 352 345 349
237 230 238 246 249 272 274 268 283 269 263 264 271 259 256 259 257 259 261 257 258 271 281 280 287 318 342 332 332 327 307 296 278 252 239 248 258 298 310 322 336 348 350 6
237 236 245 260 253 247 263 266 283 294 271 259 264 270 264 247 252 250 255 263 275 279 279 273 278 300 317 329 334 334 330 327 321 305 284 287 304 316 335 351 360 2 10 17
237 236 237 291 261 241 265 274 287 293 294 278 263 263 244 245 254 256 260 268 274 279 285 284 287 300 313 321 339 352 352 341 329 325 328 332 331 350 0 355 7 13 20 16
240 242 261 286 272 267 277 279 284 285 289 290 277 257 239 250 266 273 275 275 281 285 287 289 289 295 309 324 346 358 0 1 2 9 33 64 53 50 39 35 24 18 13 12
244 249 259 276 288 285 289 289 288 290 292 290 285 293 238 245 271 285 293 293 293 296 296 296 295 304 314 325 354 8 30 31 34 52 32 35 44 46 43 27 9 4 3 4
245 254 263 259 281 280 279 287 289 287 289 294 279 276 285 291 305 314 324 319 317 321 326 331 347 354 1 9 33 37 43 39 39 52 67 58 29 19 21 4 356 356 360 10
240 258 258 260 273 277 276 279 284 283 280 288 268 261 266 305 331 356 347 341 336 326 338 341 359 11 16 48 55 58 57 70 81 76 63 44 28 11 360 358 358 358 19 20
255 261 262 266 271 275 277 277 283 282 277 281 272 261 267 290 303 322 324 329 331 332 338 354 29 34 45 48 57 75 90 88 76 66 51 48 25 12 1 359 2 4 8 12
258 263 259 260 264 273 276 280 285 286 283 271 252 263 270 288 303 307 307 320 338 5 21 47 61 65 72 75 84 84 78 77 63 43 22 17 10 1 4 3 3 358 2 23
255 260 257 264 267 270 275 280 281 283 284 271 254 247 256 272 292 298 335 25 43 52 45 64 70 60 75 86 88 83 75 62 43 20 13 9 14 14 8 5 1 12 28 42
252 255 257 257 262 267 270 275 275 276 278 268 260 256 256 266 279 267 285 91 105 92 94 88 80 72 71 67 60 46 37 40 23 19 20 13 13 14 14 14 20 32 44 54
247 249 253 255 256 262 266 270 275 274 273 262 255 249 252 258 261 252 245 237 160 131 101 84 76 54 45 31 21 9 10 20 30 28 23 25 27 22 24 27 29 35 46 67
247 247 250 253 256 260 264 268 273 272 268 252 248 247 247 246 250 241 228 205 194 210 243 329 348 350 356 357 358 358 1 6 25 32 31 38 35 30 35 40 45 51 57 84
244 244 247 250 256 259 261 265 270 268 259 239 233 239 249 254 245 231 220 220 222 233 259 278 309 319 328 333 337 339 351 5 23 19 34 28 24 37 42 53 51 55 81 96
240 238 244 249 253 257 262 263 265 260 241 235 232 239 240 245 237 227 228 231 235 243 255 281 297 307 315 319 327 333 332 335 340 350 5 15 28 49 62 68 75 79 96 106
234 233 237 247 254 258 262 265 256 239 230 232 234 241 242 247 237 231 232 239 243 243 258 281 299 305 309 309 312 317 319 313 315 329 5 46 51 84 76 83 84 84 100 118
230 231 237 243 248 252 256 256 245 236 226 223 231 232 246 250 239 239 240 239 245 251 259 280 298 309 314 316 321 328 327 333 315 320 340 9 68 92 84 73 96 112 111 114
233 226 222 226 229 236 247 242 239 235 229 229 232 241 250 249 242 228 241 245 245 251 258 279 295 300 312 318 337 350 355 353 347 339 333 5 106 101 109 114 112 123 128 122
200 188 203 213 221 220 218 234 223 233 236 244 247 254 263 253 261 254 246 241 243 246 256 271 286 304 313 319 315 326 334 337 338 337 328 320 338 330 329 104 124 127 134 134
56 91 192 205 212 232 223 237 253 274 271 273 273 274 280 278 254 251 245 245 248 253 259 268 280 289 297 296 299 313 325 327 329 333 329 324 314 313 314 111 128 133 134 139
36 28 359 315 242 284 265 261 268 272 277 293 291 279 282 280 270 263 262 258 259 262 269 273 281 279 284 295 291 300 323 337 345 344 353 353 30 51 117 127 125 130 138 137
24 25 6 334 312 321 328 348 320 292 287 292 288 287 278 270 290 280 265 264 270 274 276 275 276 284 285 283 276 286 310 335 356 25 56 56 91 106 115 124 128 121 124 132